Time,TemperatureF,DewpointF,PressureIn,WindDirection,WindDirectionDegrees,WindSpeedMPH,WindSpeedGustMPH,Humidity,HourlyPrecipIn,Conditions,Clouds,dailyrainin,SolarRadiationWatts/m^2,SoftwareType,DateUTC
2013-08-30 00:00:00,72.7,71.5,29.98,East,83,0.0,0.0,96,0.00,,,0.00,0,Wunderground v.1.15,2013-08-30 04:00:00,
2013-08-30 00:02:00,72.6,71.4,29.98,East,82,0.0,0.0,96,0.00,,,0.00,0,Wunderground v.1.15,2013-08-30 04:02:00,
2013-08-30 00:04:00,72.6,71.7,29.98,East,83,0.0,0.0,97,0.00,,,0.00,0,Wunderground v.1.15,2013-08-30 04:04:00,
2013-08-30 00:07:00,72.6,71.4,29.98,East,83,0.0,0.0,96,0.00,,,0.00,0,Wunderground v.1.15,2013-08-30 04:07:00,
2013-08-30 00:12:00,72.5,71.6,29.98,East,82,0.0,0.0,97,0.00,,,0.00,0,Wunderground v.1.15,2013-08-30 04:12:00,
2013-08-30 00:15:00,72.5,71.6,29.98,East,83,0.0,0.0,97,0.00,,,0.00,0,Wunderground v.1.15,2013-08-30 04:15:00,
2013-08-30 00:16:00,72.4,71.5,29.98,East,83,0.0,0.0,97,0.00,,,0.00,0,Wunderground v.1.15,2013-08-30 04:16:00,
2013-08-30 00:21:00,72.3,71.4,29.98,East,82,0.0,0.0,97,0.00,,,0.00,0,Wunderground v.1.15,2013-08-30 04:21:00,
2013-08-30 00:27:00,72.3,71.4,29.98,East,83,0.0,0.0,97,0.00,,,0.00,0,Wunderground v.1.15,2013-08-30 04:27:00,
2013-08-30 00:33:00,72.2,71.3,29.98,East,83,0.0,0.0,97,0.00,,,0.00,0,Wunderground v.1.15,2013-08-30 04:33:00,
2013-08-30 00:38:00,72.1,71.2,29.98,East,83,0.0,0.0,97,0.00,,,0.00,0,Wunderground v.1.15,2013-08-30 04:38:00,
2013-08-30 00:42:00,72.1,71.5,29.98,East,82,0.0,0.0,98,0.00,,,0.00,0,Wunderground v.1.15,2013-08-30 04:42:00,
2013-08-30 00:48:00,71.9,71.3,29.98,East,82,0.0,1.0,98,0.00,,,0.00,0,Wunderground v.1.15,2013-08-30 04:48:00,
2013-08-30 00:53:00,71.8,71.2,29.98,East,82,0.0,0.0,98,0.00,,,0.00,0,Wunderground v.1.15,2013-08-30 04:53:00,
2013-08-30 00:58:00,71.8,71.2,29.98,East,82,0.0,0.0,98,0.00,,,0.00,0,Wunderground v.1.15,2013-08-30 04:58:00,
2013-08-30 01:05:00,71.7,71.1,29.97,East,83,0.0,0.0,98,0.00,,,0.00,0,Wunderground v.1.15,2013-08-30 05:05:00,
2013-08-30 01:11:00,71.6,71.0,29.98,East,82,0.0,0.0,98,0.00,,,0.00,0,Wunderground v.1.15,2013-08-30 05:11:00,
2013-08-30 01:18:00,71.5,70.9,29.98,East,83,0.0,0.0,98,0.00,,,0.00,0,Wunderground v.1.15,2013-08-30 05:18:00,
2013-08-30 01:23:00,71.4,70.8,29.98,East,83,0.0,0.0,98,0.00,,,0.00,0,Wunderground v.1.15,2013-08-30 05:23:00,
2013-08-30 01:29:00,71.4,70.8,29.97,East,82,0.0,0.0,98,0.00,,,0.00,0,Wunderground v.1.15,2013-08-30 05:29:00,
2013-08-30 01:35:00,71.3,70.7,29.97,East,82,0.0,0.0,98,0.00,,,0.00,0,Wunderground v.1.15,2013-08-30 05:35:00,
2013-08-30 01:41:00,71.1,70.5,29.97,East,82,0.0,0.0,98,0.00,,,0.00,0,Wunderground v.1.15,2013-08-30 05:41:00,
2013-08-30 01:46:00,71.0,70.4,29.97,East,82,0.0,0.0,98,0.00,,,0.00,0,Wunderground v.1.15,2013-08-30 05:46:00,
2013-08-30 01:51:00,71.0,70.4,29.97,East,82,0.0,0.0,98,0.00,,,0.00,0,Wunderground v.1.15,2013-08-30 05:51:00,
2013-08-30 01:57:00,70.9,70.3,29.97,East,83,0.0,0.0,98,0.00,,,0.00,0,Wunderground v.1.15,2013-08-30 05:57:00,
2013-08-30 02:03:00,70.8,70.2,29.97,East,82,0.0,0.0,98,0.00,,,0.00,0,Wunderground v.1.15,2013-08-30 06:03:00,
2013-08-30 02:08:00,70.9,70.3,29.97,East,82,0.0,0.0,98,0.00,,,0.00,0,Wunderground v.1.15,2013-08-30 06:08:00,
2013-08-30 02:13:00,70.8,70.5,29.97,East,83,0.0,1.0,99,0.00,,,0.00,0,Wunderground v.1.15,2013-08-30 06:13:00,
2013-08-30 02:19:00,70.7,70.1,29.97,East,82,0.0,1.0,98,0.00,,,0.00,0,Wunderground v.1.15,2013-08-30 06:19:00,
2013-08-30 02:24:00,70.7,70.1,29.97,East,83,0.0,0.0,98,0.00,,,0.00,0,Wunderground v.1.15,2013-08-30 06:24:00,
2013-08-30 02:29:00,70.6,70.0,29.97,East,83,0.0,0.0,98,0.00,,,0.00,0,Wunderground v.1.15,2013-08-30 06:29:00,
2013-08-30 02:34:00,70.6,70.0,29.97,East,82,0.0,0.0,98,0.00,,,0.00,0,Wunderground v.1.15,2013-08-30 06:34:00,
2013-08-30 02:39:00,70.6,70.3,29.97,East,82,0.0,0.0,99,0.00,,,0.00,0,Wunderground v.1.15,2013-08-30 06:39:00,
2013-08-30 02:44:00,70.4,70.1,29.96,East,82,0.0,0.0,99,0.00,,,0.00,0,Wunderground v.1.15,2013-08-30 06:44:00,
2013-08-30 02:50:00,70.4,70.1,29.96,East,82,0.0,0.0,99,0.00,,,0.00,0,Wunderground v.1.15,2013-08-30 06:50:00,
2013-08-30 02:55:00,70.4,70.1,29.96,East,82,0.0,0.0,99,0.00,,,0.00,0,Wunderground v.1.15,2013-08-30 06:55:00,
2013-08-30 03:00:00,70.3,70.0,29.96,East,82,0.0,0.0,99,0.00,,,0.00,0,Wunderground v.1.15,2013-08-30 07:00:00,
2013-08-30 03:05:00,70.2,69.9,29.96,East,82,0.0,0.0,99,0.00,,,0.00,0,Wunderground v.1.15,2013-08-30 07:05:00,
2013-08-30 03:11:00,70.2,69.9,29.96,East,83,0.0,0.0,99,0.00,,,0.00,0,Wunderground v.1.15,2013-08-30 07:11:00,
2013-08-30 03:16:00,70.1,69.8,29.96,East,82,0.0,1.0,99,0.00,,,0.00,0,Wunderground v.1.15,2013-08-30 07:16:00,
2013-08-30 03:21:00,70.1,69.8,29.96,East,82,0.0,0.0,99,0.00,,,0.00,0,Wunderground v.1.15,2013-08-30 07:21:00,
2013-08-30 03:26:00,70.1,69.8,29.96,East,83,0.0,0.0,99,0.00,,,0.00,0,Wunderground v.1.15,2013-08-30 07:26:00,
2013-08-30 03:32:00,70.1,69.8,29.96,East,83,0.0,0.0,99,0.00,,,0.00,0,Wunderground v.1.15,2013-08-30 07:32:00,
2013-08-30 03:37:00,70.1,69.8,29.96,East,83,0.0,0.0,99,0.00,,,0.00,0,Wunderground v.1.15,2013-08-30 07:37:00,
2013-08-30 03:42:00,70.2,69.9,29.96,East,84,0.0,0.0,99,0.00,,,0.00,0,Wunderground v.1.15,2013-08-30 07:42:00,
2013-08-30 03:47:00,70.3,70.0,29.96,East,84,0.0,2.0,99,0.00,,,0.00,0,Wunderground v.1.15,2013-08-30 07:47:00,
2013-08-30 03:52:00,70.3,70.0,29.96,East,84,0.0,0.0,99,0.00,,,0.00,0,Wunderground v.1.15,2013-08-30 07:52:00,
2013-08-30 03:57:00,70.4,70.1,29.96,East,85,0.0,1.0,99,0.00,,,0.00,0,Wunderground v.1.15,2013-08-30 07:57:00,
2013-08-30 04:02:00,70.4,70.1,29.96,East,85,0.0,1.0,99,0.00,,,0.00,0,Wunderground v.1.15,2013-08-30 08:02:00,
2013-08-30 04:48:00,70.5,70.2,29.96,East,85,0.0,0.0,99,0.00,,,0.00,0,Wunderground v.1.15,2013-08-30 08:48:00,
2013-08-30 04:53:00,70.5,70.2,29.97,East,85,0.0,1.0,99,0.00,,,0.00,0,Wunderground v.1.15,2013-08-30 08:53:00,
2013-08-30 04:58:00,70.5,70.2,29.97,East,85,0.0,0.0,99,0.00,,,0.00,0,Wunderground v.1.15,2013-08-30 08:58:00,
2013-08-30 05:03:00,70.5,70.2,29.97,East,85,0.0,1.0,99,0.00,,,0.00,0,Wunderground v.1.15,2013-08-30 09:03:00,
2013-08-30 05:08:00,70.5,70.2,29.97,East,85,0.0,1.0,99,0.00,,,0.00,0,Wunderground v.1.15,2013-08-30 09:08:00,
2013-08-30 05:13:00,70.5,70.2,29.96,East,85,0.0,1.0,99,0.00,,,0.00,0,Wunderground v.1.15,2013-08-30 09:13:00,
2013-08-30 05:18:00,70.2,69.9,29.97,East,85,0.0,2.0,99,0.00,,,0.00,0,Wunderground v.1.15,2013-08-30 09:18:00,
2013-08-30 05:23:00,70.3,70.0,29.97,East,85,0.0,2.0,99,0.00,,,0.00,0,Wunderground v.1.15,2013-08-30 09:23:00,
2013-08-30 05:28:00,70.2,69.9,29.97,East,85,0.0,2.0,99,0.00,,,0.00,0,Wunderground v.1.15,2013-08-30 09:28:00,
2013-08-30 05:33:00,70.2,69.9,29.97,East,85,0.0,1.0,99,0.00,,,0.00,0,Wunderground v.1.15,2013-08-30 09:33:00,
2013-08-30 05:38:00,70.2,69.9,29.97,East,85,0.0,1.0,99,0.00,,,0.00,0,Wunderground v.1.15,2013-08-30 09:38:00,
2013-08-30 05:44:00,70.1,69.8,29.97,East,85,0.0,1.0,99,0.00,,,0.00,0,Wunderground v.1.15,2013-08-30 09:44:00,
2013-08-30 05:49:00,70.1,69.8,29.98,East,85,1.0,1.0,99,0.00,,,0.00,0,Wunderground v.1.15,2013-08-30 09:49:00,
2013-08-30 05:54:00,70.1,69.8,29.98,East,85,1.0,2.0,99,0.00,,,0.00,0,Wunderground v.1.15,2013-08-30 09:54:00,
2013-08-30 05:59:00,70.2,69.9,29.97,East,85,0.0,0.0,99,0.00,,,0.00,0,Wunderground v.1.15,2013-08-30 09:59:00,
2013-08-30 06:04:00,70.1,69.8,29.97,East,85,0.0,1.0,99,0.00,,,0.00,0,Wunderground v.1.15,2013-08-30 10:04:00,
2013-08-30 06:09:00,70.0,69.7,29.98,East,85,1.0,1.0,99,0.00,,,0.00,0,Wunderground v.1.15,2013-08-30 10:09:00,
2013-08-30 06:14:00,70.1,69.8,29.97,East,85,1.0,1.0,99,0.00,,,0.00,0,Wunderground v.1.15,2013-08-30 10:14:00,
2013-08-30 06:20:00,70.0,69.7,29.97,East,85,0.0,0.0,99,0.00,,,0.00,0,Wunderground v.1.15,2013-08-30 10:20:00,
2013-08-30 06:25:00,70.1,69.8,29.98,East,85,0.0,1.0,99,0.00,,,0.00,0,Wunderground v.1.15,2013-08-30 10:25:00,
2013-08-30 06:30:00,70.1,69.8,29.98,East,85,0.0,0.0,99,0.00,,,0.00,0,Wunderground v.1.15,2013-08-30 10:30:00,
2013-08-30 06:35:00,70.1,69.8,29.98,East,85,0.0,1.0,99,0.00,,,0.00,0,Wunderground v.1.15,2013-08-30 10:35:00,
2013-08-30 06:40:00,70.2,69.9,29.98,East,85,1.0,1.0,99,0.00,,,0.00,0,Wunderground v.1.15,2013-08-30 10:40:00,
2013-08-30 06:45:00,70.1,69.8,29.98,East,85,0.0,1.0,99,0.00,,,0.00,0,Wunderground v.1.15,2013-08-30 10:45:00,
2013-08-30 06:50:00,70.1,70.1,29.98,East,85,0.0,0.0,100,0.00,,,0.00,0,Wunderground v.1.15,2013-08-30 10:50:00,
2013-08-30 06:55:00,70.1,70.1,29.98,East,85,0.0,1.0,100,0.00,,,0.00,0,Wunderground v.1.15,2013-08-30 10:55:00,
2013-08-30 07:00:00,70.1,70.1,29.98,East,85,0.0,1.0,100,0.00,,,0.00,0,Wunderground v.1.15,2013-08-30 11:00:00,
2013-08-30 07:05:00,70.0,70.0,29.98,East,85,0.0,1.0,100,0.00,,,0.00,0,Wunderground v.1.15,2013-08-30 11:05:00,
2013-08-30 07:10:00,70.2,70.2,29.98,East,85,0.0,0.0,100,0.00,,,0.00,0,Wunderground v.1.15,2013-08-30 11:10:00,
2013-08-30 07:15:00,70.2,70.2,29.98,East,85,0.0,1.0,100,0.00,,,0.00,0,Wunderground v.1.15,2013-08-30 11:15:00,
2013-08-30 07:20:00,70.3,70.3,29.98,East,86,0.0,1.0,100,0.00,,,0.00,0,Wunderground v.1.15,2013-08-30 11:20:00,
2013-08-30 07:25:00,70.2,69.9,29.98,East,86,0.0,2.0,99,0.00,,,0.00,0,Wunderground v.1.15,2013-08-30 11:25:00,
2013-08-30 07:31:00,70.3,70.0,29.98,East,85,0.0,1.0,99,0.00,,,0.00,0,Wunderground v.1.15,2013-08-30 11:31:00,
2013-08-30 07:36:00,70.2,69.9,29.98,East,85,1.0,2.0,99,0.00,,,0.00,0,Wunderground v.1.15,2013-08-30 11:36:00,
2013-08-30 07:41:00,70.3,70.0,29.98,East,85,1.0,2.0,99,0.00,,,0.00,0,Wunderground v.1.15,2013-08-30 11:41:00,
2013-08-30 07:46:00,70.2,69.9,29.99,East,85,1.0,2.0,99,0.00,,,0.00,0,Wunderground v.1.15,2013-08-30 11:46:00,
2013-08-30 07:51:00,70.2,69.9,29.98,East,86,0.0,1.0,99,0.00,,,0.00,0,Wunderground v.1.15,2013-08-30 11:51:00,
2013-08-30 07:56:00,70.4,69.8,29.98,East,86,0.0,1.0,98,0.00,,,0.00,0,Wunderground v.1.15,2013-08-30 11:56:00,
2013-08-30 08:01:00,70.6,70.0,29.98,East,85,0.0,0.0,98,0.00,,,0.00,0,Wunderground v.1.15,2013-08-30 12:01:00,
2013-08-30 08:06:00,71.0,70.1,29.99,East,84,1.0,1.0,97,0.00,,,0.00,0,Wunderground v.1.15,2013-08-30 12:06:00,
2013-08-30 08:12:00,71.1,70.2,29.98,East,83,1.0,2.0,97,0.00,,,0.00,0,Wunderground v.1.15,2013-08-30 12:12:00,
2013-08-30 08:17:00,70.9,70.0,29.98,East,84,0.0,2.0,97,0.00,,,0.00,0,Wunderground v.1.15,2013-08-30 12:17:00,
2013-08-30 08:22:00,71.1,70.2,29.98,East,84,0.0,1.0,97,0.00,,,0.00,0,Wunderground v.1.15,2013-08-30 12:22:00,
2013-08-30 08:26:00,71.2,70.3,29.98,East,84,0.0,1.0,97,0.00,,,0.00,0,Wunderground v.1.15,2013-08-30 12:26:00,
2013-08-30 08:31:00,71.3,70.4,29.98,East,85,0.0,1.0,97,0.00,,,0.00,0,Wunderground v.1.15,2013-08-30 12:31:00,
2013-08-30 08:36:00,71.7,70.8,29.98,East,85,0.0,1.0,97,0.00,,,0.00,0,Wunderground v.1.15,2013-08-30 12:36:00,
2013-08-30 08:41:00,71.9,70.7,29.98,ENE,78,0.0,0.0,96,0.00,,,0.00,0,Wunderground v.1.15,2013-08-30 12:41:00,
2013-08-30 08:46:00,72.0,70.8,29.99,East,82,0.0,1.0,96,0.00,,,0.00,0,Wunderground v.1.15,2013-08-30 12:46:00,
2013-08-30 08:51:00,72.4,70.9,29.99,East,82,0.0,1.0,95,0.00,,,0.00,0,Wunderground v.1.15,2013-08-30 12:51:00,
2013-08-30 08:56:00,72.5,71.0,29.98,East,82,1.0,2.0,95,0.00,,,0.00,0,Wunderground v.1.15,2013-08-30 12:56:00,
2013-08-30 09:02:00,72.6,70.8,29.99,East,82,1.0,2.0,94,0.00,,,0.00,0,Wunderground v.1.15,2013-08-30 13:02:00,
2013-08-30 09:07:00,72.9,71.1,29.98,East,83,1.0,2.0,94,0.00,,,0.00,0,Wunderground v.1.15,2013-08-30 13:07:00,
2013-08-30 09:12:00,73.1,70.6,29.99,East,83,1.0,4.0,92,0.00,,,0.00,0,Wunderground v.1.15,2013-08-30 13:12:00,
2013-08-30 09:17:00,73.6,71.1,29.99,East,85,0.0,4.0,92,0.00,,,0.00,0,Wunderground v.1.15,2013-08-30 13:17:00,
2013-08-30 09:22:00,74.7,71.6,29.99,East,81,0.0,2.0,90,0.00,,,0.00,0,Wunderground v.1.15,2013-08-30 13:22:00,
2013-08-30 09:28:00,75.9,71.8,29.99,East,91,0.0,3.0,87,0.00,,,0.00,0,Wunderground v.1.15,2013-08-30 13:28:00,
2013-08-30 09:33:00,77.1,72.6,29.99,ESE,120,0.0,4.0,86,0.00,,,0.00,0,Wunderground v.1.15,2013-08-30 13:33:00,
2013-08-30 09:38:00,77.9,72.0,29.99,SE,145,0.0,4.0,82,0.00,,,0.00,0,Wunderground v.1.15,2013-08-30 13:38:00,
2013-08-30 09:43:00,78.2,72.6,29.98,WSW,237,1.0,3.0,83,0.00,,,0.00,0,Wunderground v.1.15,2013-08-30 13:43:00,
2013-08-30 09:48:00,78.9,72.6,29.98,SSE,160,2.0,4.0,81,0.00,,,0.00,0,Wunderground v.1.15,2013-08-30 13:48:00,
2013-08-30 09:53:00,79.5,72.8,29.98,SSW,213,3.0,3.0,80,0.00,,,0.00,0,Wunderground v.1.15,2013-08-30 13:53:00,
2013-08-30 09:58:00,80.0,72.9,29.98,South,185,2.0,5.0,79,0.00,,,0.00,0,Wunderground v.1.15,2013-08-30 13:58:00,
2013-08-30 10:03:00,80.4,72.9,29.99,South,186,0.0,3.0,78,0.00,,,0.00,0,Wunderground v.1.15,2013-08-30 14:03:00,
2013-08-30 10:08:00,79.8,72.3,29.99,South,177,3.0,4.0,78,0.00,,,0.00,0,Wunderground v.1.15,2013-08-30 14:08:00,
2013-08-30 10:13:00,79.0,71.9,29.99,South,177,1.0,4.0,79,0.00,,,0.00,0,Wunderground v.1.15,2013-08-30 14:13:00,
2013-08-30 10:18:00,79.6,72.9,29.99,South,176,0.0,4.0,80,0.00,,,0.00,0,Wunderground v.1.15,2013-08-30 14:18:00,
2013-08-30 10:23:00,80.2,73.1,29.99,South,183,1.0,2.0,79,0.00,,,0.00,0,Wunderground v.1.15,2013-08-30 14:23:00,
2013-08-30 10:28:00,80.3,73.2,29.99,South,174,3.0,6.0,79,0.00,,,0.00,0,Wunderground v.1.15,2013-08-30 14:28:00,
2013-08-30 10:33:00,80.6,72.7,29.99,SSW,199,1.0,4.0,77,0.00,,,0.00,0,Wunderground v.1.15,2013-08-30 14:33:00,
2013-08-30 10:38:00,80.4,72.9,29.99,SE,126,2.0,4.0,78,0.00,,,0.00,0,Wunderground v.1.15,2013-08-30 14:38:00,
2013-08-30 10:43:00,80.3,72.8,29.99,West,270,1.0,5.0,78,0.00,,,0.00,0,Wunderground v.1.15,2013-08-30 14:43:00,
2013-08-30 10:48:00,80.4,72.9,29.99,SSE,148,0.0,5.0,78,0.00,,,0.00,0,Wunderground v.1.15,2013-08-30 14:48:00,
2013-08-30 10:53:00,80.6,73.5,29.99,SW,214,1.0,4.0,79,0.00,,,0.00,0,Wunderground v.1.15,2013-08-30 14:53:00,
2013-08-30 10:58:00,81.3,74.2,29.99,South,187,1.0,4.0,79,0.00,,,0.00,0,Wunderground v.1.15,2013-08-30 14:58:00,
2013-08-30 11:03:00,81.7,73.4,29.99,West,262,1.0,4.0,76,0.00,,,0.00,0,Wunderground v.1.15,2013-08-30 15:03:00,
2013-08-30 11:08:00,81.8,73.1,29.99,West,270,4.0,4.0,75,0.00,,,0.00,0,Wunderground v.1.15,2013-08-30 15:08:00,
2013-08-30 11:13:00,80.9,73.0,29.98,West,273,2.0,5.0,77,0.00,,,0.00,0,Wunderground v.1.15,2013-08-30 15:13:00,
2013-08-30 11:18:00,81.2,74.1,29.99,South,188,2.0,5.0,79,0.00,,,0.00,0,Wunderground v.1.15,2013-08-30 15:18:00,
2013-08-30 11:23:00,81.5,74.0,29.99,South,172,0.0,6.0,78,0.00,,,0.00,0,Wunderground v.1.15,2013-08-30 15:23:00,
2013-08-30 11:28:00,82.6,74.3,29.98,South,170,1.0,1.0,76,0.00,,,0.00,0,Wunderground v.1.15,2013-08-30 15:28:00,
2013-08-30 11:33:00,82.5,74.2,29.99,South,171,1.0,4.0,76,0.00,,,0.00,0,Wunderground v.1.15,2013-08-30 15:33:00,
2013-08-30 11:38:00,83.2,74.4,29.98,SSE,168,0.0,0.0,75,0.00,,,0.00,0,Wunderground v.1.15,2013-08-30 15:38:00,
2013-08-30 11:43:00,84.3,74.3,29.98,South,184,1.0,3.0,72,0.00,,,0.00,0,Wunderground v.1.15,2013-08-30 15:43:00,
2013-08-30 11:48:00,84.4,74.8,29.98,SSW,199,3.0,4.0,73,0.00,,,0.00,0,Wunderground v.1.15,2013-08-30 15:48:00,
2013-08-30 11:53:00,84.5,74.5,29.98,South,171,1.0,5.0,72,0.00,,,0.00,0,Wunderground v.1.15,2013-08-30 15:53:00,
2013-08-30 11:58:00,84.3,74.7,29.98,WSW,254,3.0,5.0,73,0.00,,,0.00,0,Wunderground v.1.15,2013-08-30 15:58:00,
2013-08-30 12:03:00,83.5,74.3,29.98,WNW,284,4.0,5.0,74,0.00,,,0.00,0,Wunderground v.1.15,2013-08-30 16:03:00,
2013-08-30 12:08:00,82.6,74.3,29.98,WNW,285,3.0,3.0,76,0.00,,,0.00,0,Wunderground v.1.15,2013-08-30 16:08:00,
2013-08-30 12:14:00,82.8,74.5,29.98,WNW,285,4.0,4.0,76,0.00,,,0.00,0,Wunderground v.1.15,2013-08-30 16:14:00,
2013-08-30 12:18:00,83.5,74.7,29.97,South,184,2.0,2.0,75,0.00,,,0.00,0,Wunderground v.1.15,2013-08-30 16:18:00,
2013-08-30 12:24:00,84.3,75.1,29.97,South,176,0.0,6.0,74,0.00,,,0.00,0,Wunderground v.1.15,2013-08-30 16:24:00,
2013-08-30 12:29:00,84.7,75.5,29.97,SSW,207,1.0,1.0,74,0.00,,,0.00,0,Wunderground v.1.15,2013-08-30 16:29:00,
2013-08-30 12:34:00,85.1,75.1,29.97,SSW,196,1.0,4.0,72,0.00,,,0.00,0,Wunderground v.1.15,2013-08-30 16:34:00,
2013-08-30 12:39:00,85.0,75.4,29.97,West,262,1.0,1.0,73,0.00,,,0.00,0,Wunderground v.1.15,2013-08-30 16:39:00,
2013-08-30 12:44:00,84.8,74.8,29.97,West,261,1.0,4.0,72,0.00,,,0.00,0,Wunderground v.1.15,2013-08-30 16:44:00,
2013-08-30 12:49:00,84.7,75.1,29.97,West,271,2.0,2.0,73,0.00,,,0.00,0,Wunderground v.1.15,2013-08-30 16:49:00,
2013-08-30 12:54:00,84.7,75.1,29.96,West,271,1.0,5.0,73,0.00,,,0.00,0,Wunderground v.1.15,2013-08-30 16:54:00,
2013-08-30 12:59:00,84.8,74.8,29.96,WNW,284,3.0,3.0,72,0.00,,,0.00,0,Wunderground v.1.15,2013-08-30 16:59:00,
2013-08-30 13:04:00,84.9,74.9,29.96,West,281,3.0,4.0,72,0.00,,,0.00,0,Wunderground v.1.15,2013-08-30 17:04:00,
2013-08-30 13:09:00,85.1,75.1,29.95,West,278,3.0,4.0,72,0.00,,,0.00,0,Wunderground v.1.15,2013-08-30 17:09:00,
2013-08-30 13:14:00,84.7,74.7,29.95,WNW,285,2.0,5.0,72,0.00,,,0.00,0,Wunderground v.1.15,2013-08-30 17:14:00,
2013-08-30 13:19:00,84.0,74.8,29.95,WNW,288,2.0,2.0,74,0.00,,,0.00,0,Wunderground v.1.15,2013-08-30 17:19:00,
2013-08-30 13:24:00,84.2,74.6,29.95,WNW,289,4.0,4.0,73,0.00,,,0.00,0,Wunderground v.1.15,2013-08-30 17:24:00,
2013-08-30 13:29:00,83.7,74.5,29.95,WNW,283,2.0,3.0,74,0.00,,,0.00,0,Wunderground v.1.15,2013-08-30 17:29:00,
2013-08-30 13:35:00,84.0,74.4,29.95,WNW,287,1.0,4.0,73,0.00,,,0.00,0,Wunderground v.1.15,2013-08-30 17:35:00,
2013-08-30 13:40:00,83.7,74.9,29.95,WNW,287,2.0,3.0,75,0.00,,,0.00,0,Wunderground v.1.15,2013-08-30 17:40:00,
2013-08-30 13:45:00,84.0,74.8,29.94,WNW,287,3.0,4.0,74,0.00,,,0.00,0,Wunderground v.1.15,2013-08-30 17:45:00,
2013-08-30 13:50:00,84.9,74.0,29.94,West,269,3.0,6.0,70,0.00,,,0.00,0,Wunderground v.1.15,2013-08-30 17:50:00,
2013-08-30 13:55:00,85.1,75.1,29.94,West,273,3.0,6.0,72,0.00,,,0.00,0,Wunderground v.1.15,2013-08-30 17:55:00,
2013-08-30 14:01:00,85.6,75.5,29.94,West,279,2.0,3.0,72,0.00,,,0.00,0,Wunderground v.1.15,2013-08-30 18:01:00,
2013-08-30 14:06:00,86.0,75.1,29.94,SSW,193,2.0,3.0,70,0.00,,,0.00,0,Wunderground v.1.15,2013-08-30 18:06:00,
2013-08-30 14:11:00,86.1,75.6,29.94,West,266,1.0,4.0,71,0.00,,,0.00,0,Wunderground v.1.15,2013-08-30 18:11:00,
2013-08-30 14:16:00,85.6,75.1,29.94,NW,315,2.0,6.0,71,0.00,,,0.00,0,Wunderground v.1.15,2013-08-30 18:16:00,
2013-08-30 14:21:00,85.7,74.8,29.94,West,263,2.0,4.0,70,0.00,,,0.00,0,Wunderground v.1.15,2013-08-30 18:21:00,
2013-08-30 14:26:00,85.3,74.4,29.94,West,279,1.0,4.0,70,0.00,,,0.00,0,Wunderground v.1.15,2013-08-30 18:26:00,
2013-08-30 14:31:00,85.9,74.1,29.94,West,279,2.0,2.0,68,0.00,,,0.00,0,Wunderground v.1.15,2013-08-30 18:31:00,
2013-08-30 14:36:00,86.0,74.2,29.94,West,280,2.0,5.0,68,0.00,,,0.00,0,Wunderground v.1.15,2013-08-30 18:36:00,
2013-08-30 14:41:00,86.3,73.6,29.94,West,279,3.0,4.0,66,0.00,,,0.00,0,Wunderground v.1.15,2013-08-30 18:41:00,
2013-08-30 14:46:00,86.7,73.1,29.93,West,277,2.0,6.0,64,0.00,,,0.00,0,Wunderground v.1.15,2013-08-30 18:46:00,
2013-08-30 14:51:00,87.2,74.0,29.93,West,277,1.0,3.0,65,0.00,,,0.00,0,Wunderground v.1.15,2013-08-30 18:51:00,
2013-08-30 14:56:00,87.5,71.4,29.93,West,278,2.0,6.0,59,0.00,,,0.00,0,Wunderground v.1.15,2013-08-30 18:56:00,
2013-08-30 15:01:00,87.7,73.1,29.93,SSW,199,1.0,4.0,62,0.00,,,0.00,0,Wunderground v.1.15,2013-08-30 19:01:00,
2013-08-30 15:06:00,87.8,72.7,29.93,WNW,282,4.0,6.0,61,0.00,,,0.00,0,Wunderground v.1.15,2013-08-30 19:06:00,
2013-08-30 15:11:00,87.9,72.3,29.93,WNW,282,1.0,4.0,60,0.00,,,0.00,0,Wunderground v.1.15,2013-08-30 19:11:00,
2013-08-30 15:16:00,88.0,72.4,29.93,WNW,282,3.0,4.0,60,0.00,,,0.00,0,Wunderground v.1.15,2013-08-30 19:16:00,
2013-08-30 15:21:00,88.2,72.6,29.92,SSE,165,4.0,6.0,60,0.00,,,0.00,0,Wunderground v.1.15,2013-08-30 19:21:00,
2013-08-30 15:26:00,88.4,72.2,29.92,South,188,2.0,6.0,59,0.00,,,0.00,0,Wunderground v.1.15,2013-08-30 19:26:00,
2013-08-30 15:31:00,88.6,71.9,29.92,West,275,2.0,6.0,58,0.00,,,0.00,0,Wunderground v.1.15,2013-08-30 19:31:00,
2013-08-30 15:36:00,88.7,73.0,29.91,SSE,165,3.0,6.0,60,0.00,,,0.00,0,Wunderground v.1.15,2013-08-30 19:36:00,
2013-08-30 15:41:00,88.6,72.9,29.91,SE,145,5.0,7.0,60,0.00,,,0.00,0,Wunderground v.1.15,2013-08-30 19:41:00,
2013-08-30 15:46:00,88.5,72.8,29.91,South,170,5.0,7.0,60,0.00,,,0.00,0,Wunderground v.1.15,2013-08-30 19:46:00,
2013-08-30 15:51:00,88.7,72.0,29.91,SSE,153,4.0,4.0,58,0.00,,,0.00,0,Wunderground v.1.15,2013-08-30 19:51:00,
2013-08-30 15:57:00,88.6,72.9,29.91,WSW,240,1.0,7.0,60,0.00,,,0.00,0,Wunderground v.1.15,2013-08-30 19:57:00,
2013-08-30 16:02:00,88.8,73.6,29.90,South,179,3.0,4.0,61,0.00,,,0.00,0,Wunderground v.1.15,2013-08-30 20:02:00,
2013-08-30 16:07:00,89.0,72.8,29.90,West,263,2.0,4.0,59,0.00,,,0.00,0,Wunderground v.1.15,2013-08-30 20:07:00,
2013-08-30 16:12:00,89.2,72.5,29.90,WSW,253,2.0,4.0,58,0.00,,,0.00,0,Wunderground v.1.15,2013-08-30 20:12:00,
2013-08-30 16:17:00,89.4,73.2,29.90,SW,221,1.0,4.0,59,0.00,,,0.00,0,Wunderground v.1.15,2013-08-30 20:17:00,
2013-08-30 16:22:00,89.6,73.4,29.90,SW,232,0.0,4.0,59,0.00,,,0.00,0,Wunderground v.1.15,2013-08-30 20:22:00,
2013-08-30 16:27:00,89.5,72.8,29.90,SSE,147,1.0,6.0,58,0.00,,,0.00,0,Wunderground v.1.15,2013-08-30 20:27:00,
2013-08-30 16:33:00,89.5,72.8,29.90,South,188,1.0,5.0,58,0.00,,,0.00,0,Wunderground v.1.15,2013-08-30 20:33:00,
2013-08-30 16:38:00,89.5,72.8,29.90,SSW,211,2.0,7.0,58,0.00,,,0.00,0,Wunderground v.1.15,2013-08-30 20:38:00,
2013-08-30 16:43:00,89.0,70.7,29.90,SE,141,1.0,4.0,55,0.00,,,0.00,0,Wunderground v.1.15,2013-08-30 20:43:00,
2013-08-30 16:48:00,88.9,71.7,29.90,ESE,106,3.0,5.0,57,0.00,,,0.00,0,Wunderground v.1.15,2013-08-30 20:48:00,
2013-08-30 16:53:00,88.4,70.7,29.90,SSE,157,3.0,5.0,56,0.00,,,0.00,0,Wunderground v.1.15,2013-08-30 20:53:00,
2013-08-30 16:58:00,88.3,71.1,29.90,SSE,157,1.0,5.0,57,0.00,,,0.00,0,Wunderground v.1.15,2013-08-30 20:58:00,
2013-08-30 17:03:00,88.5,71.3,29.90,South,173,1.0,5.0,57,0.00,,,0.00,0,Wunderground v.1.15,2013-08-30 21:03:00,
2013-08-30 17:08:00,88.6,71.4,29.90,West,279,1.0,5.0,57,0.00,,,0.00,0,Wunderground v.1.15,2013-08-30 21:08:00,
2013-08-30 17:13:00,88.6,70.4,29.89,SSE,154,3.0,6.0,55,0.00,,,0.00,0,Wunderground v.1.15,2013-08-30 21:13:00,
2013-08-30 17:18:00,88.5,70.8,29.90,SW,221,1.0,6.0,56,0.00,,,0.00,0,Wunderground v.1.15,2013-08-30 21:18:00,
2013-08-30 17:23:00,88.6,70.4,29.90,SSE,168,3.0,5.0,55,0.00,,,0.00,0,Wunderground v.1.15,2013-08-30 21:23:00,
2013-08-30 17:28:00,88.6,70.4,29.90,SSE,158,2.0,7.0,55,0.00,,,0.00,0,Wunderground v.1.15,2013-08-30 21:28:00,
2013-08-30 17:33:00,88.4,70.7,29.89,South,179,0.0,5.0,56,0.00,,,0.00,0,Wunderground v.1.15,2013-08-30 21:33:00,
2013-08-30 17:38:00,88.4,70.7,29.89,South,176,3.0,5.0,56,0.00,,,0.00,0,Wunderground v.1.15,2013-08-30 21:38:00,
2013-08-30 17:43:00,88.3,70.1,29.90,SSE,148,1.0,4.0,55,0.00,,,0.00,0,Wunderground v.1.15,2013-08-30 21:43:00,
2013-08-30 17:48:00,88.1,69.9,29.89,SSE,156,2.0,7.0,55,0.00,,,0.00,0,Wunderground v.1.15,2013-08-30 21:48:00,
2013-08-30 17:53:00,88.0,70.3,29.89,SSE,156,1.0,4.0,56,0.00,,,0.00,0,Wunderground v.1.15,2013-08-30 21:53:00,
2013-08-30 17:58:00,87.8,70.1,29.89,South,172,3.0,4.0,56,0.00,,,0.00,0,Wunderground v.1.15,2013-08-30 21:58:00,
2013-08-30 18:03:00,87.7,70.6,29.89,SSE,168,2.0,4.0,57,0.00,,,0.00,0,Wunderground v.1.15,2013-08-30 22:03:00,
2013-08-30 18:08:00,87.6,70.5,29.88,SSE,168,3.0,4.0,57,0.00,,,0.00,0,Wunderground v.1.15,2013-08-30 22:08:00,
2013-08-30 18:13:00,87.4,70.3,29.88,WSW,255,1.0,4.0,57,0.00,,,0.00,0,Wunderground v.1.15,2013-08-30 22:13:00,
2013-08-30 18:18:00,87.2,70.1,29.88,SSE,154,2.0,2.0,57,0.00,,,0.00,0,Wunderground v.1.15,2013-08-30 22:18:00,
2013-08-30 18:23:00,86.8,70.2,29.88,SSE,153,2.0,3.0,58,0.00,,,0.00,0,Wunderground v.1.15,2013-08-30 22:23:00,
2013-08-30 18:28:00,86.6,70.6,29.88,SSE,153,3.0,3.0,59,0.00,,,0.00,0,Wunderground v.1.15,2013-08-30 22:28:00,
2013-08-30 18:34:00,86.2,70.2,29.88,SSE,153,2.0,4.0,59,0.00,,,0.00,0,Wunderground v.1.15,2013-08-30 22:34:00,
2013-08-30 18:39:00,85.9,70.4,29.88,SSE,153,1.0,2.0,60,0.00,,,0.00,0,Wunderground v.1.15,2013-08-30 22:39:00,
2013-08-30 18:44:00,85.7,70.7,29.87,SSE,153,3.0,4.0,61,0.00,,,0.00,0,Wunderground v.1.15,2013-08-30 22:44:00,
2013-08-30 18:49:00,85.4,70.4,29.87,SSE,153,0.0,2.0,61,0.00,,,0.00,0,Wunderground v.1.15,2013-08-30 22:49:00,
2013-08-30 18:54:00,85.1,70.6,29.87,SSE,153,0.0,3.0,62,0.00,,,0.00,0,Wunderground v.1.15,2013-08-30 22:54:00,
2013-08-30 18:59:00,84.9,70.9,29.87,SSE,153,2.0,3.0,63,0.00,,,0.00,0,Wunderground v.1.15,2013-08-30 22:59:00,
2013-08-30 19:05:00,84.6,70.6,29.87,SSE,154,1.0,3.0,63,0.00,,,0.00,0,Wunderground v.1.15,2013-08-30 23:05:00,
2013-08-30 19:10:00,84.4,70.9,29.86,SSE,153,2.0,2.0,64,0.00,,,0.00,0,Wunderground v.1.15,2013-08-30 23:10:00,
2013-08-30 19:15:00,84.2,70.7,29.86,SSE,148,0.0,2.0,64,0.00,,,0.00,0,Wunderground v.1.15,2013-08-30 23:15:00,
2013-08-30 19:20:00,84.0,71.0,29.86,SSE,149,2.0,2.0,65,0.00,,,0.00,0,Wunderground v.1.15,2013-08-30 23:20:00,
2013-08-30 19:25:00,83.7,71.1,29.86,SSE,150,0.0,2.0,66,0.00,,,0.00,0,Wunderground v.1.15,2013-08-30 23:25:00,
2013-08-30 19:30:00,83.5,71.4,29.86,SSE,148,0.0,0.0,67,0.00,,,0.00,0,Wunderground v.1.15,2013-08-30 23:30:00,
2013-08-30 19:36:00,83.1,71.4,29.86,SE,139,1.0,2.0,68,0.00,,,0.00,0,Wunderground v.1.15,2013-08-30 23:36:00,
2013-08-30 19:41:00,82.8,71.6,29.86,SE,142,0.0,0.0,69,0.00,,,0.00,0,Wunderground v.1.15,2013-08-30 23:41:00,
2013-08-30 19:46:00,82.5,71.3,29.86,SE,145,0.0,0.0,69,0.00,,,0.00,0,Wunderground v.1.15,2013-08-30 23:46:00,
2013-08-30 19:51:00,82.2,71.4,29.87,SE,143,0.0,0.0,70,0.00,,,0.00,0,Wunderground v.1.15,2013-08-30 23:51:00,
2013-08-30 19:56:00,81.7,71.4,29.87,SE,142,1.0,1.0,71,0.00,,,0.00,0,Wunderground v.1.15,2013-08-30 23:56:00,
2013-08-30 20:01:00,81.2,71.7,29.86,SE,144,0.0,0.0,73,0.00,,,0.00,0,Wunderground v.1.15,2013-08-31 00:01:00,
2013-08-30 20:06:00,80.8,71.7,29.87,SSE,147,0.0,1.0,74,0.00,,,0.00,0,Wunderground v.1.15,2013-08-31 00:06:00,
2013-08-30 20:11:00,80.3,72.0,29.86,SSE,149,0.0,1.0,76,0.00,,,0.00,0,Wunderground v.1.15,2013-08-31 00:11:00,
2013-08-30 20:16:00,79.9,72.4,29.87,SSE,149,0.0,2.0,78,0.00,,,0.00,0,Wunderground v.1.15,2013-08-31 00:16:00,
2013-08-30 20:21:00,79.5,72.4,29.87,SSE,150,1.0,1.0,79,0.00,,,0.00,0,Wunderground v.1.15,2013-08-31 00:21:00,
2013-08-30 20:26:00,79.1,72.0,29.87,SSE,150,0.0,1.0,79,0.00,,,0.00,0,Wunderground v.1.15,2013-08-31 00:26:00,
2013-08-30 20:31:00,78.7,72.0,29.87,SSE,150,1.0,1.0,80,0.00,,,0.00,0,Wunderground v.1.15,2013-08-31 00:31:00,
2013-08-30 20:36:00,78.4,72.1,29.87,SSE,150,0.0,2.0,81,0.00,,,0.00,0,Wunderground v.1.15,2013-08-31 00:36:00,
2013-08-30 20:41:00,78.1,72.2,29.87,SSE,151,0.0,1.0,82,0.00,,,0.00,0,Wunderground v.1.15,2013-08-31 00:41:00,
2013-08-30 20:46:00,77.9,72.0,29.87,SSE,152,1.0,1.0,82,0.00,,,0.00,0,Wunderground v.1.15,2013-08-31 00:46:00,
2013-08-30 20:51:00,77.6,72.0,29.87,SSE,150,0.0,0.0,83,0.00,,,0.00,0,Wunderground v.1.15,2013-08-31 00:51:00,
2013-08-30 20:56:00,77.4,71.8,29.87,SSE,149,0.0,0.0,83,0.00,,,0.00,0,Wunderground v.1.15,2013-08-31 00:56:00,
2013-08-30 21:01:00,77.2,72.0,29.87,SSE,149,0.0,1.0,84,0.00,,,0.00,0,Wunderground v.1.15,2013-08-31 01:01:00,
2013-08-30 21:06:00,77.0,71.8,29.87,SSE,148,0.0,1.0,84,0.00,,,0.00,0,Wunderground v.1.15,2013-08-31 01:06:00,
2013-08-30 21:11:00,76.9,71.7,29.88,SSE,147,0.0,0.0,84,0.00,,,0.00,0,Wunderground v.1.15,2013-08-31 01:11:00,
2013-08-30 21:16:00,76.7,71.8,29.87,SSE,148,0.0,0.0,85,0.00,,,0.00,0,Wunderground v.1.15,2013-08-31 01:16:00,
2013-08-30 21:21:00,76.5,71.7,29.87,SSE,148,0.0,0.0,85,0.00,,,0.00,0,Wunderground v.1.15,2013-08-31 01:21:00,
2013-08-30 21:26:00,76.4,71.9,29.87,SSE,148,0.0,1.0,86,0.00,,,0.00,0,Wunderground v.1.15,2013-08-31 01:26:00,
2013-08-30 21:31:00,76.2,72.0,29.88,SSE,148,0.0,0.0,87,0.00,,,0.00,0,Wunderground v.1.15,2013-08-31 01:31:00,
2013-08-30 21:36:00,76.0,71.8,29.88,SSE,148,0.0,0.0,87,0.00,,,0.00,0,Wunderground v.1.15,2013-08-31 01:36:00,
2013-08-30 21:42:00,75.8,71.7,29.88,SSE,147,0.0,0.0,87,0.00,,,0.00,0,Wunderground v.1.15,2013-08-31 01:42:00,
2013-08-30 21:47:00,75.7,71.6,29.88,SE,146,0.0,0.0,87,0.00,,,0.00,0,Wunderground v.1.15,2013-08-31 01:47:00,
2013-08-30 21:52:00,75.6,71.8,29.88,SSE,148,0.0,0.0,88,0.00,,,0.00,0,Wunderground v.1.15,2013-08-31 01:52:00,
2013-08-30 21:57:00,75.4,71.6,29.88,SSE,148,0.0,0.0,88,0.00,,,0.00,0,Wunderground v.1.15,2013-08-31 01:57:00,
2013-08-30 22:02:00,75.3,71.8,29.88,SSE,147,0.0,0.0,89,0.00,,,0.00,0,Wunderground v.1.15,2013-08-31 02:02:00,
2013-08-30 22:07:00,75.2,71.7,29.88,SSE,148,0.0,1.0,89,0.00,,,0.00,0,Wunderground v.1.15,2013-08-31 02:07:00,
2013-08-30 22:12:00,75.0,71.9,29.88,SSE,148,0.0,0.0,90,0.00,,,0.00,0,Wunderground v.1.15,2013-08-31 02:12:00,
2013-08-30 22:17:00,74.8,71.7,29.88,SSE,147,0.0,0.0,90,0.00,,,0.00,0,Wunderground v.1.15,2013-08-31 02:17:00,
2013-08-30 22:22:00,74.8,71.7,29.88,SSE,148,0.0,0.0,90,0.00,,,0.00,0,Wunderground v.1.15,2013-08-31 02:22:00,
2013-08-30 22:27:00,74.7,71.6,29.88,SSE,147,0.0,0.0,90,0.00,,,0.00,0,Wunderground v.1.15,2013-08-31 02:27:00,
2013-08-30 22:33:00,74.6,71.5,29.88,SSE,147,0.0,0.0,90,0.00,,,0.00,0,Wunderground v.1.15,2013-08-31 02:33:00,
2013-08-30 22:38:00,74.4,71.6,29.88,SSE,149,0.0,0.0,91,0.00,,,0.00,0,Wunderground v.1.15,2013-08-31 02:38:00,
2013-08-30 22:43:00,74.3,71.8,29.88,SSE,150,0.0,0.0,92,0.00,,,0.00,0,Wunderground v.1.15,2013-08-31 02:43:00,
2013-08-30 22:48:00,74.2,71.4,29.88,SSE,150,0.0,0.0,91,0.00,,,0.00,0,Wunderground v.1.15,2013-08-31 02:48:00,
2013-08-30 22:53:00,74.1,71.3,29.88,SSE,149,0.0,0.0,91,0.00,,,0.00,0,Wunderground v.1.15,2013-08-31 02:53:00,
2013-08-30 22:58:00,74.0,71.5,29.88,SSE,149,0.0,0.0,92,0.00,,,0.00,0,Wunderground v.1.15,2013-08-31 02:58:00,
2013-08-30 23:03:00,73.9,71.4,29.88,SSE,147,0.0,0.0,92,0.00,,,0.00,0,Wunderground v.1.15,2013-08-31 03:03:00,
2013-08-30 23:08:00,73.8,71.3,29.88,SSE,148,0.0,0.0,92,0.00,,,0.00,0,Wunderground v.1.15,2013-08-31 03:08:00,
2013-08-30 23:13:00,73.7,71.5,29.89,SSE,147,0.0,0.0,93,0.00,,,0.00,0,Wunderground v.1.15,2013-08-31 03:13:00,
2013-08-30 23:18:00,73.6,71.4,29.88,SSE,147,0.0,0.0,93,0.00,,,0.00,0,Wunderground v.1.15,2013-08-31 03:18:00,
2013-08-30 23:23:00,73.5,71.4,29.89,SSE,148,0.0,0.0,93,0.00,,,0.00,0,Wunderground v.1.15,2013-08-31 03:23:00,
2013-08-30 23:28:00,73.4,70.9,29.88,SSE,147,0.0,0.0,92,0.00,,,0.00,0,Wunderground v.1.15,2013-08-31 03:28:00,
2013-08-30 23:33:00,73.4,71.3,29.88,SE,146,0.0,0.0,93,0.00,,,0.00,0,Wunderground v.1.15,2013-08-31 03:33:00,
2013-08-30 23:38:00,73.2,71.1,29.88,SE,146,0.0,0.0,93,0.00,,,0.00,0,Wunderground v.1.15,2013-08-31 03:38:00,
2013-08-30 23:43:00,73.1,71.3,29.88,SE,146,0.0,0.0,94,0.00,,,0.00,0,Wunderground v.1.15,2013-08-31 03:43:00,
2013-08-30 23:49:00,73.0,71.2,29.87,SSE,147,0.0,0.0,94,0.00,,,0.00,0,Wunderground v.1.15,2013-08-31 03:49:00,
2013-08-30 23:54:00,73.0,71.2,29.87,SE,146,0.0,0.0,94,0.00,,,0.00,0,Wunderground v.1.15,2013-08-31 03:54:00,